Flag for Turkey Weather past 2 weeks in Konya, Turkey

Now
75 °F

Passing clouds.


Feels Like: 77 °F
Forecast: 62 / 84 °F
Wind: 6 mph from North

Location: Konya Airport

Current Time: Jul 5, 2015 at 11:29:57 AM

Latest Report: Jul 5, 2015 at 10:50 AM


Visibility: N/A

Pressure: 30.07 "Hg (26.68 "Hg at 1041m altitude)

Humidity: 39%

Dew point: 48 °F

Location of KonyaLocation

Historic Weather in Konya — Graph

°F

Konya temperature yesterday

Maximum temperature yesterday: 81 °F (at 2:50 PM)
Minimum temperature yesterday: 61 °F (at 3:50 AM)
Average temperature yesterday: 70 °F

Past Weeks' High & Low Weather Summary

 TemperatureHumidityPressure
High82 °F (Jun 22, 2:50 PM)88% (Jun 27, 8:50 PM)30.15 "Hg (Jun 27, 8:50 PM)
Low50 °F (Jun 28, 2:50 AM)25% (Jun 22, 3:50 PM)29.74 "Hg (Jun 27, 1:50 PM)
Average67 °F55%29.96 "Hg
* Reported Jun 20 9:50 AM — Jul 5 9:50 AM, Konya, Weather by CustomWeather, © 2015

Note: Actual official high and low records may vary slightly from our data, if they occured in-between our weather recording intervals... More about our weather records

Advertising

Konya weather history for previous 24 hours

 ConditionsComfort  
Time TempWeatherWind HumidityBarometerVisibility
9:50 AM
Sun, Jul 5
75 °FPassing clouds.7 mph39%30.07 "HgN/A
8:50 AM73 °FSunny.10 mph47%30.07 "Hg10 mi
7:50 AM70 °FSunny.12 mph53%30.07 "Hg10 mi
6:50 AM64 °FSunny.9 mph64%30.07 "Hg10 mi
5:50 AM59 °FClear.9 mph72%30.07 "Hg10 mi
4:50 AM59 °FClear.8 mph68%30.07 "Hg10 mi
3:50 AM63 °FClear.5 mph59%30.04 "Hg10 mi
2:50 AM64 °FClear.8 mph56%30.07 "Hg10 mi
1:50 AM64 °FClear.7 mph56%30.07 "Hg10 mi
12:50 AM66 °FClear.8 mph49%30.07 "Hg10 mi
11:50 PM
Sat, Jul 4
64 °FClear.6 mph52%30.07 "Hg10 mi
10:50 PM66 °FClear.6 mph49%30.07 "Hg10 mi
9:50 PM68 °FClear.6 mph46%30.07 "Hg10 mi
8:50 PM70 °FSunny.7 mph43%30.07 "Hg10 mi
7:50 PM75 °FPassing clouds.9 mph34%30.04 "HgN/A
6:50 PM79 °FPassing clouds.12 mph28%30.04 "HgN/A
5:50 PM81 °FPassing clouds.8 mph26%30.04 "HgN/A
4:50 PM81 °FScattered clouds.13 mph26%30.04 "HgN/A
3:50 PM81 °FScattered clouds.12 mph28%30.07 "HgN/A
2:50 PM81 °FScattered clouds.7 mph28%30.07 "HgN/A
1:50 PM79 °FScattered clouds.8 mph32%30.07 "HgN/A
12:50 PM75 °FScattered clouds.7 mph41%30.09 "HgN/A
11:50 AM73 °FPassing clouds.8 mph44%30.09 "HgN/A
Weather by CustomWeather, © 2015

See weather overviewHow to use our weather pages